ARIANE 5 R/B, 41749

Orbit data source: Space-Track

ARIANE 5 R/B, 41749 is space debris in HEO originally from a launch on Wed, 24 Aug 2016 UTC launched from the French Guiana (FRGUI). Debris objects in space refer to the collection of defunct objects orbiting the Earth. Examples of debris include non-operational satellites, rocket bodies, and fragments generated from explosions, collisions, or faulty payload assembly.

Loading next visibility...
Identifier
41749, 2016-053C
Orbit
HEO
Country
Flag of FRFR
Related business
Manufacturer
Airbus Safran
Mission
Spacecraft
Bus & Motor
ESC-A, Unknown motor
Mass
~5,000 kg wet, ~5,000 kg dry
Launch date (UTC)
2016-08-24 (9 years ago)
Launch vehicle
Unknown
Launch site
French Guiana (FRGUI)
Object type
Payload
Rocket body
Debris
Shape & HBR
Cyl + 1 Nozzle, 3.5 m
Radar Cross Section
41.627 m², Large (>1 m²)

Expand to show TLE details & history
Last TLE update: 19 hours ago

TLE from 19 hours ago
0 ARIANE 5 R/B
1 41749U 16053C   25340.41632507  .00006956  00000-0  17645-2 0  9993
2 41749   6.0269 115.1486 7148754 176.3680 195.1942  2.45023311 79652
Epoch: 2025-12-06T09:59Z
TLE epoch observation values (Epoch: 2025-12-06T09:59:30.486Z)
Latitude
-0.00007°
Longitude
-110.22034°
Altitude
33,278.292 km
Speed
1.718 km/s
True Right ascension
07h 40m 24s
True Declination
0° 00' 00"
Sunlit
Object was in daylight at epoch
Visualization orbit readout
Latitude
Unknown
Longitude
Unknown
Altitude
Unknown
Speed
Unknown
Apparent Right ascension
Unknown
Apparent Declination
Unknown
Sunlit
N/A
Visualization observer readout
Local Sidereal Time
03:30:11
Azimuth
Unknown
Elevation
Unknown
Doppler factor
Unknown
Orbital elements
Apogee altitude
33,487.46 km
Perigee altitude
250.136 km
Semi-major axis
23,246.935 km
Eccentricity
0.71488
Inclination
6.0269°
RAAN
115.1486°
Arg. of periapsis
176.368°
True anomaly
183.62489°
Mean anomaly
195.1942°
Eccentric anomaly
188.87501°
Mean motion
0.61234 °/min
Orbital period
587.91 mins
BSTAR
0.0017645
Loading maneuver chart data...
Computing Atmospheric mass density...
Loading historical data...
Loading historical data...
Loading historical data...
Loading historical data...
Loading historical data...
Loading historical data...
Loading historical data...

Documentation

Showing up to 5 results
|